Regional Weather Roundup
Issued by NWS

Home | Current Version | Previous Version | Graphics & Text | Print | Product List | Glossary On
Versions: 1 2 3 4 5 6 7 8 9 10 11 12 13 14 15 16 17 18 19 20 21 22 23 24 25 26 27 28 29 30 31 32 33 34 35 36 37 38 39 40 41 42 43 44 45 46 47 48 49 50
966
ASUS43 KLMK 291710
RWRKY
KENTUCKY REGIONAL WEATHER ROUNDUP
NATIONAL WEATHER SERVICE LOUISVILLE KY
100 PM EDT MON MAY 29 2017

NOTE "FAIR" INDICATES FEW OR NO CLOUDS BELOW 12,000 FEET
WITH NO SIGNIFICANT WEATHER AND/OR OBSTRUCTIONS TO VISIBILITY.

KYZ001>023-026-027-061>063-070>075-291800-
WESTERN AND SOUTH CENTRAL KENTUCKY

CITY           SKY/WX    TMP DP  RH WIND       PRES   REMARKS
PADUCAH        SUNNY     82  57  42 W13       29.99S
HENDERSON      SUNNY     80  61  52 SW12      29.98S
OWENSBORO      SUNNY     81  56  42 SW16      29.97F
HOPKINSVILLE   SUNNY     80  56  43 S5        30.01S
BOWLING GREEN  MOSUNNY   81  58  45 S9        30.01S
GLASGOW        PTSUNNY   79  58  49 SW3       30.01F
$$

KYZ024-025-028>034-038-045-046-053-291800-
NORTH CENTRAL KENTUCKY

CITY           SKY/WX    TMP DP  RH WIND       PRES   REMARKS
LOUISVILLE/SDF PTSUNNY   81  57  43 SW17G25   29.97S
LOUISVILLE/LOU MOSUNNY   80  59  48 SW8G20    29.97S
FORT KNOX      SUNNY     79  59  50 SW9       29.97S
$$

KYZ035>037-039>044-047>052-055>060-089>105-291800-
NORTHEAST KENTUCKY

CITY           SKY/WX    TMP DP  RH WIND       PRES   REMARKS
LEXINGTON      SUNNY     78  57  48 W10       30.00S
COVINGTON      MOSUNNY   77  59  53 SW10      29.96R
FRANKFORT      SUNNY     79  56  45 W7G17     29.98S
$$

KYZ054-064>069-076>088-106>120-291800-
SOUTHEAST KENTUCKY

CITY           SKY/WX    TMP DP  RH WIND       PRES   REMARKS
JACKSON        MOSUNNY   73  62  68 VRB5      30.04R
LONDON         CLOUDY    71  61  70 S8        30.06R
SOMERSET       SUNNY     72  59  64 S3        30.06S
MIDDLESBORO    CLOUDY    74  63  68 NW7       30.06S
MONTICELLO     PTSUNNY   74  63  68 VRB6      30.07S
$$





USA.gov is the U.S. government's official web portal to all federal, state and local government web resources and services.